Погода в Семёнкове

Россия / Вологодская область     59°16′47″N   39°51′28″E
темп.,
°C
ветер,
м/с
пор.,
м/с
влажн.,
%
обл.,
%
осадки,
мм/ч
давл.,
гПа
погр.,
м
2 июля, сб
сб200:00+12зсз337023 0.0 102329
03:00+11зсз347325 0.0 102361
06:00+14зсз377648 0.0 1022182
09:00+18зсз376689 0.0 1021366
12:00+23сз584910 0.0 10191147
15:00+26сз4949100 0.0 10172143
18:00+24с4959100 0.0 1016387
21:00+19с477078 0.0 1017106
3 июля, вс
вс300:00+15ссв338411 0.0 101736
03:00+13св22920 0.0 101829
06:00+16всв23850 0.0 1018143
09:00+20всв33680 0.0 1018613
12:00+23ссв23589 0.0 10181310
15:00+25ссз235145 0.0 10171711
18:00+24зсз2362100 0.0 1016477
21:00+19з227358 0.0 101611
4 июля, пн
пн400:00+17зсз22791 0.0 101722
03:00+15зсз22880 0.0 101711
06:00+18зсз12790 0.0 101790
09:00+23сз22630 0.0 1017417
12:00+26с12510 0.0 10171110
15:00+27ссв12470 0.0 10161199
18:00+27юв11530 0.0 1015399
21:00+21ююз33687 0.0 101619
5 июля, вт
вт500:00+17сз34890 0.0 101660
03:00+16зюз22915 0.0 101623
06:00+19ююз228041 0.0 1016102
09:00+24зюз3464100 0.0 1016534
12:00+21ююз247650 0.0 1016190
15:00+26ююз455558 0.0 10151236
18:00+26юз356367 0.1 1013473
21:00+19зсз368948 1.3 1014122
6 июля, ср
ср600:00+17юз359198 0.6 101478
03:00+16зюз229363 0.6 101325
06:00+19юз239196 0.2 1013123
09:00+22юз2477100 0.8 1012508
12:00+26зюз3557100 0.3 10121666
15:00+25з466543 0.8 1012883
18:00+20сз3589100 0.8 1011194
21:00+19з349295 1.9 101165